Theta_e
323 321 321 320 322 322 320 319 317 315 314 313 312 310 308 304 302 301 300 300 300 300 300 300 300 300 299 299 297 295 294 294 294 293 292 292 291 291 290 291 291 291
322 320 319 320 320 319 320 319 317 316 314 313 311 307 303 300 300 300 298 298 298 298 298 299 298 298 297 297 296 295 293 293 291 291 291 290 289 289 289 289 289 290
321 320 319 319 319 318 318 317 316 315 312 309 305 302 300 299 298 298 297 297 296 296 296 296 295 296 295 294 294 293 292 291 289 289 289 288 289 289 289 289 289 289
319 320 320 319 319 317 315 313 310 309 307 303 302 300 299 297 297 295 295 294 295 294 293 294 294 293 293 291 291 291 289 289 288 289 288 288 288 288 288 288 287 287
318 318 318 318 316 314 312 310 307 305 304 303 299 297 296 295 295 293 292 292 292 291 291 291 291 291 290 290 290 289 288 288 287 289 288 287 287 288 287 288 287 286
315 316 316 315 312 311 310 308 305 303 301 298 297 296 296 295 293 292 291 291 290 290 290 289 289 289 289 289 289 289 288 288 288 288 287 287 286 287 287 287 287 286
311 311 310 310 309 309 308 306 303 301 299 298 295 294 293 292 292 291 291 290 290 290 289 289 288 288 288 288 288 288 288 288 287 287 287 286 286 286 286 286 286 285
307 307 307 306 306 305 303 301 299 298 295 293 294 292 292 292 291 290 290 289 289 288 288 288 287 287 287 288 288 287 287 287 287 287 286 286 286 285 285 286 286 285
303 302 302 302 301 299 298 296 294 293 293 293 292 291 291 291 290 289 288 288 288 288 287 287 287 287 287 287 287 287 286 286 286 286 286 286 285 285 285 285 285 284
299 298 299 299 298 296 294 293 292 292 292 292 291 290 290 289 289 288 288 287 287 286 287 286 286 286 286 287 287 287 286 286 285 286 286 285 285 284 284 284 284 284
296 296 297 296 295 294 292 291 291 291 291 290 290 289 288 287 287 287 287 287 286 286 286 286 286 286 285 285 286 286 286 285 285 285 285 285 285 284 284 284 284 283
294 294 295 294 293 292 291 291 290 290 290 289 289 288 287 287 286 286 286 286 286 286 286 285 285 286 285 285 285 285 285 285 285 285 285 284 284 284 284 284 283 283
293 293 293 292 292 291 290 290 290 289 289 288 288 287 287 286 286 285 286 286 285 285 285 285 285 285 285 285 285 285 285 285 285 284 284 284 284 284 283 283 283 283
293 292 292 291 290 290 289 289 288 288 288 287 287 286 286 285 285 285 284 284 284 284 284 284 284 284 285 285 285 285 285 285 284 284 284 283 283 283 283 283 282 282
291 290 290 289 289 289 288 287 287 287 286 286 286 285 285 285 285 284 283 283 283 283 284 284 285 285 285 285 285 285 285 284 284 283 283 282 282 282 282 282 281 282
290 289 289 289 288 288 287 287 286 285 285 285 285 284 284 283 283 283 283 283 282 283 284 285 285 285 284 286 286 285 285 284 283 283 282 282 281 281 281 281 281 281
289 289 288 288 288 287 286 286 285 285 284 284 283 283 283 282 282 282 282 282 282 283 284 285 285 286 287 288 287 285 284 283 283 282 282 281 281 280 279 279 280 280
289 288 288 288 287 286 285 285 284 284 283 283 282 282 282 282 282 282 281 281 282 283 284 285 286 288 289 288 287 285 283 282 282 282 281 281 280 280 280 279 279 279
288 288 288 287 286 285 285 284 283 283 282 282 282 282 281 281 281 281 281 281 281 282 283 284 286 289 289 287 286 285 284 282 281 281 280 280 280 279 279 279 279 279
287 287 287 286 286 285 284 283 283 283 282 282 281 281 281 280 280 280 280 280 281 282 283 284 286 288 288 287 285 285 284 282 281 280 280 279 279 279 279 279 278 278
287 287 286 285 284 284 283 283 283 282 281 281 281 281 280 280 279 279 279 279 280 281 282 283 285 288 288 286 285 284 283 281 280 280 279 279 279 279 279 278 278 278
286 286 286 284 284 283 283 282 282 281 280 280 280 279 279 279 279 279 278 278 280 281 282 282 285 287 287 286 285 284 282 280 279 279 278 278 278 278 278 278 278 278
286 286 285 284 283 283 282 282 281 280 280 279 279 279 278 278 278 278 278 278 278 280 281 282 283 286 286 285 284 283 280 279 279 278 278 278 278 278 277 277 277 277
285 285 284 283 283 283 282 282 281 280 279 279 279 278 278 277 277 277 277 277 278 278 280 281 281 284 286 285 283 282 279 278 278 277 277 277 277 277 277 277 277 277
285 285 284 283 283 283 282 281 280 279 279 279 279 278 277 276 276 276 275 275 276 277 279 279 280 283 285 284 283 281 279 278 277 277 277 277 276 276 277 276 276 277
284 284 284 283 283 282 282 281 279 278 277 278 277 277 276 276 276 276 275 275 275 276 277 278 279 281 283 284 283 281 280 278 277 277 276 276 276 275 274 275 276 276
Wind_Speed
11 10 11 11 10 9 10 10 9 11 10 10 10 9 8 6 7 6 7 6 5 6 6 6 7 7 5 6 7 7 7 8 6 5 6 7 7 7 6 6 6 5
11 11 9 9 8 8 9 10 11 11 9 9 8 8 6 7 6 7 7 7 6 6 6 7 7 7 7 6 6 7 7 6 7 4 6 7 6 6 6 6 6 5
11 10 11 11 10 10 10 8 9 9 9 7 8 7 7 5 7 7 9 8 7 7 6 6 6 6 6 6 6 6 5 6 6 5 5 6 4 5 5 5 5 5
11 12 11 11 10 10 9 9 6 6 8 8 7 7 7 7 8 9 9 7 8 7 6 7 7 7 8 7 7 5 5 5 5 5 7 5 4 5 5 5 6 5
11 10 9 9 9 10 9 10 10 8 9 8 8 8 8 8 9 9 9 7 8 8 7 8 8 8 8 8 7 6 5 6 5 5 7 7 4 5 4 5 6 7
7 8 9 9 9 10 9 10 10 10 10 10 10 8 7 9 9 10 10 9 7 8 8 8 8 7 7 8 7 6 6 6 5 6 8 7 5 4 4 5 6 7
8 7 8 7 9 10 11 10 10 10 10 10 9 9 9 9 10 10 10 9 9 8 9 9 9 8 6 7 7 7 5 6 6 7 8 6 5 6 4 5 6 7
8 6 8 8 9 9 9 9 9 11 10 8 10 9 10 11 11 9 9 9 9 9 8 8 8 8 7 7 8 8 7 4 6 7 8 6 5 6 4 3 5 6
7 7 8 8 9 8 9 10 8 8 10 11 9 9 7 10 11 10 10 9 9 9 9 8 8 8 6 7 8 9 8 6 5 6 7 7 7 5 4 4 5 5
8 7 9 9 9 8 9 8 8 7 8 10 10 9 11 8 10 10 10 9 10 9 9 9 8 7 6 6 8 9 8 8 6 6 6 6 6 5 4 4 5 5
8 8 8 9 9 8 9 9 8 8 8 11 10 10 10 11 8 8 9 10 10 11 10 9 8 8 8 7 6 6 8 7 7 7 6 6 5 5 4 5 4 5
8 8 9 9 9 9 10 10 10 9 10 8 10 13 10 10 11 8 9 10 9 9 9 9 8 8 8 8 7 7 7 7 7 7 6 5 5 4 4 4 4 4
8 8 8 8 9 9 8 9 9 9 10 11 9 11 12 11 9 9 7 9 9 9 9 8 8 7 8 8 7 7 8 8 7 6 6 5 5 5 4 4 4 4
8 7 7 7 7 8 9 8 9 9 9 9 10 11 11 11 10 10 8 8 9 9 7 7 8 8 7 7 7 7 7 7 6 7 7 6 5 4 4 4 4 4
6 6 6 8 8 8 9 10 9 9 9 9 9 9 8 9 8 9 11 10 8 8 7 6 7 7 7 7 8 7 6 7 7 7 7 6 5 5 4 3 3 4
6 6 7 7 8 9 9 10 10 10 9 9 9 9 9 9 8 9 9 10 10 8 7 7 6 4 7 9 7 7 7 6 6 6 6 6 6 5 4 4 4 3
7 7 7 8 8 8 9 10 10 9 9 9 9 9 9 9 9 10 9 9 10 9 9 7 6 6 12 12 12 11 7 7 7 6 6 5 5 5 5 4 3 3
7 8 8 8 8 10 10 9 9 9 9 10 9 10 9 8 9 10 10 9 8 9 9 8 7 9 14 14 13 11 8 7 6 6 5 5 5 5 4 4 3 3
8 8 8 8 8 9 9 9 9 9 9 9 10 9 9 10 10 11 10 9 9 10 9 8 7 12 14 14 13 12 12 8 5 5 6 5 5 5 4 4 3 2
8 8 9 9 9 9 9 10 9 10 8 8 8 8 9 9 8 10 10 9 9 10 9 8 7 11 14 14 13 13 12 8 5 6 6 6 5 4 4 4 3 2
9 9 9 9 9 9 9 9 9 8 9 8 9 10 10 11 10 10 9 7 9 7 9 8 6 13 14 14 13 13 12 9 6 5 5 5 5 4 4 4 2 2
10 10 10 10 10 9 10 10 9 10 11 8 8 6 5 6 5 6 9 8 7 8 9 9 7 14 14 14 13 13 12 6 6 6 6 5 5 4 4 3 2 2
10 11 11 10 10 10 11 11 11 10 8 7 9 8 9 8 8 7 6 8 9 8 9 8 7 12 14 14 13 13 8 5 5 5 5 5 4 4 3 3 2 2
11 11 11 11 11 13 12 10 8 6 8 8 11 11 9 8 8 8 6 6 9 8 8 9 7 10 15 14 13 12 8 6 5 5 5 4 4 4 3 2 3 3
9 9 10 11 11 11 10 11 10 10 7 6 6 7 8 7 7 8 7 5 4 6 7 8 8 9 15 14 14 13 8 5 5 5 6 5 4 3 3 2 1 1
8 9 9 10 11 9 8 8 7 8 8 8 7 6 8 7 7 7 9 7 6 6 6 6 8 7 10 16 14 13 12 6 5 6 6 6 5 4 3 2 2 0
Wind_Direction
195 187 188 190 191 185 177 174 174 169 173 166 168 168 172 155 164 124 119 129 126 128 137 136 130 123 113 109 112 111 109 111 108 113 115 113 110 110 107 104 98 103
196 190 188 187 185 181 180 175 172 171 173 173 157 144 137 152 148 123 130 124 124 131 137 135 130 122 121 114 116 111 116 117 114 119 115 106 110 108 105 110 109 115
193 189 186 187 184 180 177 174 170 169 161 153 135 132 145 152 132 119 109 113 127 133 126 125 121 117 109 106 104 107 115 121 118 123 107 103 114 108 111 115 108 103
194 191 189 187 178 172 163 155 144 141 133 137 150 142 141 139 120 116 102 121 113 119 125 122 118 109 107 106 108 100 112 110 123 127 108 103 97 105 110 110 106 94
192 189 187 180 173 160 156 154 153 156 151 140 129 136 133 131 125 118 120 125 123 124 129 120 109 109 109 109 119 120 128 125 130 125 107 98 90 97 109 112 99 90
190 183 177 170 163 157 158 160 156 152 142 143 148 140 139 136 132 134 128 134 135 135 129 122 115 111 114 119 119 119 133 126 134 123 104 103 103 88 98 95 99 92
174 167 164 157 156 164 158 155 154 147 150 149 140 144 140 136 136 139 138 138 140 143 137 133 129 125 128 129 124 121 116 119 125 115 109 111 110 94 83 95 98 100
162 157 152 152 155 154 149 147 154 151 141 143 146 145 145 141 136 135 136 140 143 138 130 125 121 124 137 142 130 122 114 120 120 115 109 109 102 97 98 98 105 102
150 153 152 152 150 150 149 148 147 145 147 144 141 140 137 137 137 137 141 144 137 134 130 124 126 131 145 140 129 126 122 111 109 110 110 111 103 107 112 118 102 94
154 152 153 151 151 152 149 143 140 149 143 133 138 138 132 124 132 136 142 148 139 134 132 128 129 138 136 127 127 128 119 117 115 104 101 104 112 121 123 115 110 103
152 154 153 153 149 150 149 141 142 143 137 137 137 127 130 130 126 141 142 147 146 142 137 137 143 141 129 123 117 114 118 120 114 108 107 109 113 117 119 118 108 100
156 155 158 155 149 148 149 145 143 144 138 136 138 130 131 140 140 154 156 146 138 135 130 131 136 134 127 128 122 121 117 109 107 108 112 115 115 112 112 105 107 107
162 160 153 151 150 146 142 141 142 142 141 133 141 141 143 140 146 140 146 134 125 123 130 137 133 129 129 125 126 126 118 114 114 116 113 110 103 104 99 100 101 100
160 154 147 144 139 138 140 138 134 135 134 133 140 144 146 147 151 145 132 121 120 121 125 130 130 128 124 126 129 124 117 117 124 123 118 110 106 100 99 99 94 85
140 137 130 136 137 135 134 120 119 121 131 137 142 139 138 142 138 132 129 116 111 121 130 132 129 134 135 146 132 117 117 124 128 125 122 120 116 109 103 96 87 76
142 139 141 139 140 140 139 126 125 134 141 141 142 138 136 138 133 132 130 130 129 131 128 127 127 123 146 136 121 127 132 126 120 119 121 126 129 126 111 96 83 79
145 147 142 148 146 140 135 145 145 144 143 141 139 142 143 144 139 135 131 131 136 139 135 130 130 137 143 130 128 130 130 128 126 124 125 129 133 125 117 108 103 93
153 148 152 152 149 140 138 148 144 144 146 145 143 144 145 142 141 134 127 131 129 127 126 128 128 147 138 131 130 130 132 128 126 126 130 128 123 114 111 112 101 94
158 160 155 151 154 151 150 146 148 147 147 150 153 148 142 147 140 130 132 133 135 134 130 133 133 146 137 133 133 133 131 124 120 124 123 121 115 111 111 109 100 93
160 160 158 158 154 152 152 153 155 158 152 146 141 147 148 139 138 140 135 140 141 133 128 131 136 145 138 134 134 132 129 122 119 121 113 110 110 111 110 105 99 104
165 166 161 158 157 156 158 161 159 150 151 155 157 156 155 155 153 149 149 140 137 133 129 134 140 146 141 137 134 132 127 121 115 112 108 106 103 101 99 97 97 106
166 166 162 161 162 162 163 164 162 162 158 157 148 137 119 123 120 131 142 143 138 138 132 134 145 149 144 139 135 131 126 117 119 115 113 112 107 103 99 92 93 77
169 167 168 168 166 165 169 169 165 163 159 153 144 146 145 150 149 145 143 143 145 146 139 135 140 153 150 142 137 134 126 120 123 118 119 119 117 115 110 97 86 58
176 173 169 170 172 177 174 169 159 151 159 165 157 153 152 151 141 132 135 145 149 149 150 141 144 154 155 148 140 139 134 132 135 128 126 129 129 127 121 110 69 53
173 173 173 173 178 177 171 166 168 163 150 148 144 140 139 134 137 135 133 132 138 142 141 141 144 155 157 151 145 142 138 137 140 135 135 142 141 135 133 119 79 33
174 174 175 176 175 166 162 162 146 142 154 146 134 132 134 136 135 140 142 142 143 144 146 147 148 154 159 156 150 148 148 146 150 145 146 147 150 146 137 136 147 216